Location: Vancouver
(49.2500°N, 123.1330°W)
Time: 16:40:02
(UTC-07:00)

ISS - Visible Passes

Search period start: 31 July 2014 00:00
Search period end: 10 August 2014 00:00
Orbit: 411 x 419 km, 51.6° (Epoch: 31 July)

Date Brightness Start Highest point End Pass type
(mag) Time Alt. Az. Time Alt. Az. Time Alt. Az.
31 Jul -0.4 00:42:46 11° ENE 00:42:46 11° ENE 00:42:50 10° ENE visible
31 Jul -2.6 02:15:38 45° NW 02:16:19 56° N 02:19:38 10° ENE visible
31 Jul -3.1 03:49:53 10° WNW 03:53:15 75° NNE 03:56:37 10° ESE visible
01 Aug -1.9 01:28:37 35° ENE 01:28:37 35° ENE 01:30:45 10° ENE visible
01 Aug -2.8 03:01:30 13° WNW 03:04:22 62° N 03:07:43 10° E visible
01 Aug -3.0 04:37:49 10° WNW 04:41:04 46° SSW 04:44:18 10° SE visible
02 Aug -2.6 02:14:51 47° NW 02:15:28 56° N 02:18:47 10° E visible
02 Aug -3.4 03:48:55 10° WNW 03:52:16 66° SSW 03:55:36 10° ESE visible
02 Aug -2.0 22:10:40 10° SSW 22:13:16 21° SE 22:14:16 19° ESE visible
02 Aug -1.3 23:46:18 10° WSW 23:47:23 19° WSW 23:47:23 19° WSW visible
03 Aug -0.6 01:29:19 14° ENE 01:29:19 14° ENE 01:29:51 10° ENE visible
03 Aug -3.4 03:02:22 41° WNW 03:03:26 90° SSW 03:06:48 10° ESE visible
03 Aug -2.1 04:37:08 10° W 04:39:50 23° SW 04:42:32 10° SSE visible
03 Aug -3.4 22:57:30 10° SW 23:00:48 63° SSE 23:02:56 20° ENE visible
04 Aug -1.4 00:34:17 10° W 00:35:54 25° WNW 00:35:54 25° WNW visible
04 Aug -1.9 03:52:25 24° S 03:52:25 24° S 03:54:11 10° SSE visible
04 Aug -3.0 22:08:49 10° SW 22:12:00 43° SSE 22:15:12 10° ENE visible
04 Aug -2.9 23:45:20 10° W 23:48:40 64° N 23:49:34 42° NE visible
05 Aug -0.4 01:22:17 10° WNW 01:22:27 11° WNW 01:22:27 11° WNW visible
05 Aug -2.4 21:20:18 10° SSW 21:23:14 29° SE 21:26:11 10° E visible
05 Aug -3.2 22:56:24 10° WSW 22:59:45 77° NNW 23:02:38 13° ENE visible
06 Aug -1.8 00:33:22 10° WNW 00:35:30 34° WNW 00:35:30 34° WNW visible
06 Aug -3.4 22:07:31 10° WSW 22:10:51 82° SSE 22:14:13 10° ENE visible
06 Aug -2.6 23:44:25 10° W 23:47:43 54° N 23:48:20 45° NE visible
07 Aug -3.2 21:18:43 10° SW 21:21:59 58° SSE 21:25:17 10° ENE visible
07 Aug -2.7 22:55:27 10° W 22:58:45 57° N 23:01:06 18° ENE visible
08 Aug -1.3 00:32:21 10° WNW 00:33:57 26° WNW 00:33:57 26° WNW visible
08 Aug -2.9 22:06:28 10° W 22:09:48 66° NNW 22:13:08 10° ENE visible
08 Aug -2.8 23:43:26 10° WNW 23:46:39 59° N 23:46:39 59° N visible
09 Aug -3.2 21:17:31 10° WSW 21:20:51 81° NNW 21:24:12 10° ENE visible
09 Aug -2.6 22:54:28 10° WNW 22:57:46 54° N 22:59:20 27° ENE visible
